Find FSKL5695-12

NORAD ID: 64886 Int'l Des: NNA 2025-155 Owner: RATEKS Country: RU operational
LEOCIRCULARRETROGRADESSO

リアルタイム位置

3D地球を読み込み中...

FSKL5695-12について

説明を読み込み中...

次回通過

Passes for default location (London). Set your location on the main map for personalized predictions.

高度履歴

Loading altitude history...

軌道要素

1 64886U 25155L 26104.56201528 .00016998 00000-0 45683-3 0 9994
2 64886 97.4430 74.3799 0008635 49.9859 310.2143 15.37940955 71141
Epoch: Apr 14, 2026 • Age: 7 hours

現在のステータス

高度 461.6 km
速度 7.64 km/s
衛星直下点 76.03°N, 140.5°E
打ち上げ日 Jul 25, 2025
運用期間 0.7 years
タイプ other

技術仕様

分類 Payload
質量 3.00 kg
乾燥質量 3.00 kg
総質量 3.00 kg
長さ 0.30 m
直径 0.10 m
スパン 0.30 m
形状 Box
製造者 RATEKS
バスタイプ Cubesat 3U
フェーズステータス In Orbit
所有者/国 RATEKS/RU

Most Searched